www.pogodaiklimat.ru

Погода и климат >> Архив погоды >> Украина >> Кобеляки


ПОГОДА в Кобеляках

  • Прогноз погоды в Кобеляках
  • Монитор погоды в Кобеляках

АРХИВ ПОГОДЫ в Кобеляках

Время (UTC), дата Ветер
(напр.,м/с)
 
Видим.   Явления Облачность Т
(С)
Тd
(С)
f
(%)
Тe
(С)
Тes
(С)
Комфортность P
(гПа)
Po
(гПа)
Тmin
(С)
Tmax
(С)
R
(мм)
R24
(мм)
S
(см)
06 9.09 СВ 2 22 км ясно +18.3 +6.2 45 +19 +23 1026.0 1011.9 +12.8
09 9.09 СВ 2 26 км ясно +26.7 +3.2 22 +25 +36 комфорт 1024.0 1010.3
12 9.09 В 3 23 км ясно +28.0 +4.9 23 +27 +33 жарко 1023.0 1009.4
15 9.09 В 3 22 км ясно +27.0 +4.7 24 +26 +26 жарко 1022.0 1008.4
18 9.09 В 2 10 км ясно +21.7 +7.1 39 +23 +23 комфорт 1023.0 1009.1 +28.8
21 9.09 В 2 10 км ясно +18.2 +6.1 45 +19 +19 1024.0 1010.0
00 10.09 В 2 10 км ясно +16.0 +4.7 47 +16 +16 1024.0 1009.8
03 10.09 СВ 3 10 км ясно +13.4 +4.3 54 +12 +12 1024.0 1009.7
06 10.09 В 2 19 км ясно +17.6 +4.5 42 +18 +22 1025.0 1010.9 +13.4
09 10.09 В 3 26 км ясно +25.6 +1.6 21 +24 +33 комфорт 1024.0 1010.3
12 10.09 ЮВ 3 30 км ясно +27.0 +2.8 21 +25 +32 комфорт 1023.0 1009.4
15 10.09 В 2 30 км ясно +26.2 +2.1 21 +25 +25 комфорт 1023.0 1009.3
18 10.09 СВ 2 10 км ясно +21.4 +3.1 30 +21 +21 комфорт 1024.0 1010.1 +27.4
21 10.09 СВ 2 10 км ясно +18.6 +3.2 36 +19 +19 1025.0 1011.0
00 11.09 СВ 2 10 км ясно +15.7 +3.5 44 +16 +16 1026.0 1011.8
03 11.09 СВ 2 15 км ясно +11.9 +3.4 56 +11 +11 1027.0 1012.6
06 11.09 В 2 20 км ясно +18.0 +4.9 42 +19 +22 1028.0 1013.9 +11.6
09 11.09 Ю 4 24 км ясно +26.1 +5.1 26 +25 +32 комфорт 1028.0 1014.3
12 11.09 С 4 29 км ясно +28.0 +1.5 18 +26 +31 жарко 1027.0 1013.4
15 11.09 В 2 28 км ясно +27.1 +5.9 26 +26 +27 жарко 1026.0 1012.3
18 11.09 В 1 10 км ясно +22.4 +4.4 31 +23 +23 комфорт 1027.0 1013.1 +28.9
21 11.09 В 2 10 км ясно +20.4 +7.1 42 +22 +22 комфорт 1027.0 1013.0
00 12.09 ЮВ 2 10 км ясно +15.5 +7.5 59 +15 +15 1028.0 1013.8
03 12.09 СВ 2 14 км ясно +13.3 +4.2 54 +13 +13 1028.0 1013.7
06 12.09 В 2 16 км ясно +18.3 +6.2 45 +19 +23 1028.0 1013.9 +13.1
09 12.09 В 2 18 км 1/1 1000 м
[Cu hum]
+27.2 +6.6 27 +27 +37 жарко 1027.0 1013.3
12 12.09 С 2 20 км 8/4 1000 м
[Cu hum Ci fib]
+27.1 +7.0 28 +27 +27 жарко 1026.0 1012.3
15 12.09 СВ 1 21 км 9/3 1000 м
[Sc diur, vesp Cs]
+26.1 +9.4 35 +27 +27 жарко 1025.0 1011.3
18 12.09 СВ 1 10 км 9/0
[Ci]
+21.0 +10.5 51 +24 +24 комфорт 1026.0 1012.1 +29.1
21 12.09 СВ 2 10 км 8/0
[Ac trans]
+18.5 +8.5 52 +19 +19 1026.0 1012.0
00 13.09 В 1 10 км 9/8 1000 м
[Sc Ac trans]
+15.0 +8.5 65 +16 +16 1026.0 1011.8
03 13.09 штиль 0 13 км 9/9 1000 м
[Sc Ac As]
+15.5 +8.0 61 +15 +15 1025.0 1010.8
06 13.09 ЮВ 1 15 км 8/5 1000 м
[Sc Ac trans]
+18.4 +6.9 47 +20 +20 1026.0 1011.9 +14.6
09 13.09 Ю 2 26 км 8/0
[Ac trans Ci fib]
+27.9 +6.6 26 +27 +27 жарко 1024.0 1010.4
12 13.09 Ю 1 23 км 6/6 1000 м
[Sc diur, vesp]
+28.6 +4.8 22 +27 +31 жарко 1023.0 1009.4
15 13.09 Ю 2 21 км 4/4 1000 м
[Cu hum]
+27.6 +6.9 27 +27 +27 жарко 1021.0 1007.4
18 13.09 Ю 2 10 км 4/0
[Ci fib]
+20.6 +6.5 40 +22 +22 комфорт 1022.0 1008.1 +29.3
21 13.09 Ю 1 10 км 6/0
[Ci fib]
+18.7 +5.5 42 +20 +20 1021.0 1007.0
00 14.09 СЗ 3 10 км ясно +16.9 +4.6 44 +17 +17 1021.0 1006.9
03 14.09 З 1 10 км ясно +13.4 +6.0 61 +14 +14 1020.0 1005.8
06 14.09 СЗ 2 14 км 8/0
[Ac cast Cs]
+14.9 +8.6 66 +15 +15 1021.0 1006.8 +13.2
09 14.09 СЗ 3 35 км 8/3 1000 м
[Sc Ac lent Cs]
+24.2 +8.2 36 +25 +25 комфорт 1019.0 1005.3
12 14.09 СЗ 5 29 км 8/5 1000 м
[Sc Ac trans]
+22.2 +11.0 49 +24 +25 комфорт 1019.4 1005.7
15 14.09 З 4 27 км 8/0
[Ac cast]
+19.6 +9.5 52 +21 +21 комфорт 1020.0 1006.1
18 14.09 СЗ 2 10 км ясно +15.1 +3.9 47 +15 +15 1020.0 1005.9 +25.3
21 14.09 СЗ 3 10 км ясно +12.4 +2.8 52 +11 +11 1023.0 1008.7
00 15.09 СЗ 3 10 км ясно +10.1 +2.2 58 +8 +8 1024.0 1009.5
03 15.09 З 2 10 км 3/0
[Ci fib]
+7.8 +2.5 69 +6 +6 1024.0 1009.5
06 15.09 СЗ 2 20 км ясно +12.0 +3.0 54 +11 +15 1024.0 1009.6 +7.6
09 15.09 С 2 25 км 6/6 1000 м
[Cu med, cong]
+19.5 +3.0 33 +20 +24 1023.8 1009.9
12 15.09 СЗ 5 29 км 8/4 1000 м
[Cu med, cong Ci]
+20.0 +4.5 36 +20 +20 1022.0 1008.1
15 15.09 З 4 28 км 9/0
[Ci]
+20.5 +3.7 33 +21 +21 комфорт 1021.0 1007.1
18 15.09 ЮЗ 2 10 км 8/0
[Cs]
+15.4 +5.3 51 +15 +15 1020.0 1005.9 +21.4
21 15.09 Ю 2 10 км ясно +13.8 +4.7 54 +13 +13 1019.0 1004.8
00 16.09 ЮЗ 1 10 км ясно +12.5 +4.5 58 +13 +13 1017.0 1002.8
03 16.09 Ю 2 10 км ясно +12.0 +3.7 57 +11 +11 1015.2 1001.0

 

Местоположение метеостанции Кобеляки (Полтавская область, Украина): широта 49.15 долгота 34.20 высота над уровнем моря 118 м.

В архиве по умолчанию представлена погода в Кобеляках за последнюю неделю. Архивные данные за месяц целиком и за предыдущие месяцы, начиная с января 2011 года, Вы можете получить, выбрав интересующий диапазон дат из раскрывающегося списка и нажав кнопку "Ввод!".


*Определитесь, кто Вы:
робот инопланетянин человек

Внимание! Время в таблицах - всемирное. Для получения местного времени необходимо прибавить поправку, которая равна 2 ч.

Смотрите также архив погоды в соседних городах и на ближайших метеорологических станциях:

Погода в Полтаве (Полтавская область, Украина) (56 км)
Погода в Светловодске (Кировоградская область, Украина) (70 км)
Погода в Комиссаровке (Днепропетровская область, Украина) (83 км)
Погода в Днепре (Днепропетровская область, Украина) (83 км)
Погода в Веселом Подоле (Полтавская область, Украина) (85 км)
Погода в Губинихе (Днепропетровская область, Украина) (86 км)
Погода в Краснограде (Харьковская область, Украина) (94 км)
Погода в Коломаке (Харьковская область, Украина) (108 км)
Погода в Чигирине (Черкасская область, Украина) (112 км)
Погода в Знаменке (Кировоградская область, Украина) (122 км)

Пояснения к столбцам:

Ветер - указаны скорость ветра в м/с - средняя за 10 мин, порывы в срок и между сроками (в фигурных скобках) и направление, откуда дует ветер: С - северный, СВ - северо-восточный, В - восточный, ЮВ - юго-восточный, Ю - южный, ЮЗ - юго-западный, З - западный, СЗ - северо-западный.
Видимость - горизонтальная дальность видимости в метрах или километрах. При видимости от 1 до 10 км при отсутствии осадков обычно наблюдается дымка, при ухудшении видимости до 1 км и менее - туман. В сухую погоду видимость может ухудшаться дымом, пылью или мглою.
Явления - указаны атмосферные явления, наблюдавшиеся в срок или в последний час перед сроком; фигурными скобками обозначены явления, наблюдавшиеся между сроками (за 1-3 часа до срока); квадратными скобками обозначены град или гололедные отложения с указанием их диаметра в мм.
Облачность - указаны через наклонную черту общая и нижняя облачность в баллах и высота нижней границы облаков в метрах; квадратными скобками обозначены формы облаков: Ci - перистые, Cs - перисто-слоистые, Cc - перисто-кучевые, Ac - высококучевые, As - высокослоистые, Sc - слоисто-кучевые, Ns - слоисто-дождевые, Cu - кучевые, Cb - кучево-дождевые. Подробнее классификацию облаков см. в Атласе облаков (PDF).
T - Температура воздуха - температура, измеренная на высоте 2 м над землей.
Td - Температура точки росы - температура, при понижении до которой содержащийся в воздухе водяной пар достигнет насыщения.
f - Относительная влажность воздуха - влажноcть воздуха, измеренная на высоте 2 м над землей.
Te - Эффективная температура - температура, которую ощущает одетый по сезону человек в тени. Характеристика душности погоды. При расчете учитывается влияние влажности воздуха и скорости ветра на теплоощущения человека.
Tes - Эффективная температура на солнце - температура, которую ощущает человек, с поправкой на солнечный нагрев. Характеристика знойности погоды. Зависит от высоты солнца над горизонтом, облачности и скорости ветра. Ночью, в пасмурную погоду, а также при ветре 12 м/с и более поправка равна нулю.
P - Атмосферное давление - приведенное к уровню моря атмосферное давление.
Po - Атмосферное давление - измеренное на уровне метеостанции атмосферное давление.
Tmin - Минимальная температура - минимум температуры воздуха на высоте 2 м над землей.
Tmax - Максимальная температура - максимум температуры воздуха на высоте 2 м над землей.
R - Количество осадков - Количество выпавших осадков за период времени, мм. При наведении курсора мыши на число - период времени, за который выпало указанное количество осадков.
R24 - Количество осадков - Количество выпавших осадков за 24 часа, мм.
S - Снежный покров - Высота снежного покрова, см. При наведении курсора мыши на число - состояние снежного покрова и степень покрытия местности в баллах.